Das Wetter in  D-61279 Heinzenberg / Taunus





Wetter Minimum- & Maximum-Werte im Dezember 2008

Standort: Heinzenberg / Taunus - Höhe 297 m         8 24' 1" Ost 50 21' 51" Nord
(   3-stündige Aktualisierung    letzte Aktualisierung um 19:04 am 31.12.2008  )


Messgrösse

Minimum

Maximum

Durchschnitt

Temperatur West /
Luftfeuchte West
Anklicken für Monats-Diagramm

-10,6 C

07:10
30.12.2008

66 %

14:45
26.12.2008

8,0 C

10:56
21.12.2008

97 %

10:01
21.12.2008

Temp

0,4 C

Feuchte

89 %

Temperatur Ost /
Luftfeuchte Ost
Anklicken für Monats-Diagramm

-10,0 C

08:49
29.12.2008

--

--
--

8,0 C

11:46
21.12.2008

--

--
--

0,5 C

--

Luftdruck Anklicken für Monats-Diagramm

988,5 hPa

02:47
05.12.2008

1040,5 hPa

09:11
26.12.2008

1019,8 hPa

Taupunkt

-12,5 C

07:10
30.12.2008

7,6 C

11:56
21.12.2008

-1,1 C

Windchill
( gefühlte Temperatur )

-15,7 C

06:55
03.12.2008

7,4 C

14:25
14.12.2008

-1,8 C

Windgeschwindigkeit /
Windrichtung
Anklicken für Monats-Diagramm

---

44,6 km/h / W

14:45
20.12.2008

6,5 km/h
W

Helligkeit /
Sonnenschein
Anklicken für Monats-Diagramm
Anklicken für Monats-Diagramm

Sonnenschein:

50:45 Stunden

Max: 7:00 Std am
26.12.2008

51,4 klux

13:41
31.12.2008

8,5 klux

Solarstrahlung Anklicken für Monats-Diagramm

---

352 W/m

13:41
31.12.2008

67 W/m

Regenmenge
    Dezember 2008
Anklicken für Monats-Diagramm

Insgesamt 30,9 l/m

in 62:06 Stunden
an 17 Tagen

10,3 l/m

03:10
20.12.2008

Gesamtmenge

30,9 l/m

Regen-Tage
    Dezember 2008
Anklicken für Monats-Diagramm

>   0 mm/Tag

>   2 mm/Tag

>   5 mm/Tag

> 10 mm/Tag

> 20 mm/Tag

17 Tage     
4 Tage     
2 Tage     
  1 Tag     
0 Tage     

Eisige Tage Dezember 2008 / 2007

Tmin ≤ -10C     

2 Tage

/

  1 Tag

Eistage Dezember 2008 / 2007

Tmax <     0C     

3 Tage

/

5 Tage

Frosttage Dezember 2008 / 2007

Tmin ≤     0C     

22 Tage

/

17 Tage

Kalte Tage Dezember 2008 / 2007

Tmax <   10C     

31 Tage

/

30 Tage

Warme Tage Dezember 2008 / 2007

Tmax ≥   20C     

0 Tage

/

0 Tage

Sommertage Dezember 2008 / 2007

Tmax ≥   25C     

0 Tage

/

0 Tage

Heisse Tage Dezember 2008 / 2007

Tmax ≥   30C     

0 Tage

/

0 Tage


Monatsdiagramm Dezember 2008

Die Kurven zeigen den Durchschnittswert des jeweiligen Tages an


Wetter-Monatsübersicht Dezember 2008
Datum
  Temperatur
   Luftdruck
   Wind
  Regen
   Luftfeuchte
   Helligkeit

Sonnen-
schein


Temp.

Min.
Temp.

Max.
Temp.


Luftdruck

Min.
Luftdruck

Max.
Luftdruck

-Geschw.
Haupt-Richtg.

Max.
Wind

Menge /
Dauer


Feuchte

Min.
Feuchte

Max.
Feuchte


Helligkeit

Max.
Helligkeit

1.
Dezember
0,4 C-3,0 C
05:43
3,2 C
15:23
999,8 hPa997,1 hPa
14:28
1004,3 hPa
23:59
4,3 km/h
W
21,7 km/h
00:23  
---
5 Minuten
87 %81 %
16:13
91 %
10:48
8,79 klux18,20 klux
12:38
30 Min 
2.
Dezember
1,7 C0,7 C
18:04
2,9 C
13:54
1007,4 hPa1004,3 hPa
00:04
1009,8 hPa
18:04
10,1 km/h
W-SW
31,5 km/h
16:29  
1,2 l/m
6:50 Stunden
89 %84 %
16:34
93 %
10:24
4,8 klux13,0 klux
10:44
--- 
3.
Dezember
0,4 C-0,8 C
23:41
1,2 C
00:20
1001,3 hPa998,4 hPa
08:20
1006,9 hPa
23:56
14,2 km/h
W-SW
41,7 km/h
06:55  
7,3 l/m
12:20 Stunden
90 %81 %
01:15
93 %
14:50
4,0 klux8,4 klux
11:25
--- 
4.
Dezember
1,1 C-3,4 C
05:01
4,2 C
22:21
997,1 hPa989,6 hPa
22:21
1006,9 hPa
00:11
11,7 km/h
W-SW
38,4 km/h
18:11  
1,8 l/m
4:40 Stunden
91 %88 %
18:31
94 %
10:16
3,22 klux7,19 klux
11:11
--- 
5.
Dezember
4,3 C3,3 C
19:42
5,1 C
11:07
991,5 hPa988,5 hPa
02:47
995,9 hPa
22:33
11,3 km/h
W-SW
25,1 km/h
14:02  
3,6 l/m
6:21 Stunden
90 %87 %
15:07
92 %
13:27
6,12 klux40,90 klux
13:22
15 Min 
6.
Dezember
3,5 C2,4 C
03:13
4,5 C
13:08
1007,0 hPa995,9 hPa
00:03
1016,7 hPa
23:59
11,5 km/h
W
37,3 km/h
01:28  
4,1 l/m
5:20 Stunden
92 %91 %
01:38
93 %
01:08
5,4 klux22,9 klux
10:58
5 Min 
7.
Dezember
2,8 C-0,9 C
23:25
5,6 C
12:59
1025,0 hPa1016,7 hPa
00:04
1030,7 hPa
23:25
5,4 km/h
W-NW
18,8 km/h
04:39  
---
15 Minuten
92 %85 %
15:44
94 %
02:09
8,5 klux40,5 klux
12:29
1:15 Std 
8.
Dezember
-1,1 C-2,6 C
22:50
0,5 C
14:05
1027,5 hPa1022,6 hPa
22:15
1030,7 hPa
00:00
0,1 km/h
SO
4,9 km/h
01:35  
---
94 %93 %
00:00
95 %
12:55
15,1 klux42,6 klux
10:45
3:45 Std 
9.
Dezember
-1,0 C-2,6 C
06:40
0,2 C
13:50
1016,6 hPa1014,0 hPa
13:50
1022,6 hPa
00:00
4,2 km/h
W
23,2 km/h
15:55  
---
93 %90 %
16:25
95 %
00:00
4,7 klux14,4 klux
12:50
--- 
10.
Dezember
0,8 C-0,2 C
00:01
2,0 C
13:16
1013,9 hPa1012,7 hPa
13:46
1015,1 hPa
01:01
1,2 km/h
W
10,3 km/h
02:41  
---
40 Minuten
93 %92 %
00:01
95 %
08:51
5,0 klux13,4 klux
12:51
--- 
11.
Dezember
0,0 C-1,0 C
19:47
1,2 C
12:32
1013,3 hPa1012,0 hPa
04:32
1015,2 hPa
20:07
0,9 km/h
NW
8,4 km/h
23:58  
---
93 %91 %
16:52
95 %
07:47
3,8 klux7,6 klux
11:47
--- 
12.
Dezember
-1,3 C-2,0 C
22:49
-0,6 C
01:28
1019,2 hPa1015,1 hPa
01:28
1021,5 hPa
21:28
4,9 km/h
W
14,5 km/h
13:13  
---
91 %87 %
22:08
92 %
00:03
3,25 klux9,20 klux
11:43
--- 
13.
Dezember
-1,3 C-2,3 C
04:09
-0,4 C
15:09
1009,5 hPa1002,7 hPa
20:19
1019,5 hPa
00:19
10,3 km/h
SO
28,3 km/h
21:29  
---
86 %82 %
16:39
89 %
07:14
1,7 klux3,9 klux
13:04
--- 
14.
Dezember
0,5 C-2,1 C
06:05
7,4 C
14:25
1004,2 hPa1002,7 hPa
14:25
1007,9 hPa
23:06
5,9 km/h
O-SO
22,5 km/h
12:15  
---
86 %74 %
14:35
92 %
23:46
17,41 klux38,80 klux
13:10
4:40 Std 
15.
Dezember
0,7 C-0,4 C
04:46
1,9 C
13:16
1013,7 hPa1007,8 hPa
00:46
1018,1 hPa
21:26
3,1 km/h
NO
14,5 km/h
12:11  
---
92 %91 %
13:06
93 %
05:46
5,7 klux12,8 klux
11:56
--- 
16.
Dezember
0,3 C-0,4 C
23:58
0,8 C
12:57
1016,2 hPa1013,0 hPa
21:17
1018,1 hPa
08:27
2,4 km/h
NO
13,3 km/h
13:57  
---
95 %93 %
00:01
95 %
07:12
2,7 klux5,5 klux
12:02
--- 
17.
Dezember
-1,0 C-2,2 C
22:23
0,0 C
23:43
1013,7 hPa1011,0 hPa
04:13
1017,2 hPa
22:28
5,1 km/h
W
16,8 km/h
12:53  
0,5 l/m
4:35 Stunden
95 %94 %
14:18
95 %
00:03
3,88 klux8,36 klux
13:43
--- 
18.
Dezember
1,1 C0,0 C
00:03
3,0 C
15:18
1021,1 hPa1017,1 hPa
00:28
1023,1 hPa
16:28
3,5 km/h
W-SW
19,8 km/h
22:53  
---
35 Minuten
94 %90 %
15:03
96 %
08:13
7,25 klux34,90 klux
12:23
35 Min 
19.
Dezember
2,9 C0,6 C
21:43
6,5 C
13:58
1023,1 hPa1019,8 hPa
08:08
1027,4 hPa
21:43
11,8 km/h
W-SW
30,6 km/h
13:43  
0,5 l/m
2:45 Stunden
91 %83 %
14:23
95 %
10:08
8,9 klux40,5 klux
11:53
1:15 Std 
20.
Dezember
5,0 C1,3 C
02:45
7,7 C
15:25
1023,9 hPa1021,3 hPa
15:25
1028,0 hPa
23:26
23,3 km/h
W
44,6 km/h
14:45  
10,3 l/m
11:55 Stunden
94 %85 %
00:55
95 %
10:40
5,2 klux20,8 klux
13:35
5 Min 
21.
Dezember
6,2 C3,9 C
00:01
8,0 C
10:56
1030,8 hPa1028,0 hPa
01:36
1032,8 hPa
23:32
13,5 km/h
W
31,2 km/h
22:01  
0,9 l/m
3:05 Stunden
93 %85 %
20:41
97 %
10:01
3,9 klux12,6 klux
10:41
--- 
22.
Dezember
6,3 C2,5 C
23:58
7,8 C
12:37
1032,0 hPa1030,6 hPa
12:37
1035,4 hPa
23:58
16,3 km/h
W
34,9 km/h
05:07  
0,6 l/m
1:25 Stunden
93 %90 %
01:17
95 %
12:32
2,1 klux5,8 klux
11:47
--- 
23.
Dezember
2,6 C-0,7 C
07:23
7,2 C
14:33
1036,4 hPa1035,4 hPa
00:03
1037,7 hPa
10:48
2,0 km/h
W
13,8 km/h
13:08  
---
30 Minuten
92 %85 %
15:58
96 %
09:48
17,06 klux43,80 klux
13:18
4:55 Std 
24.
Dezember
3,7 C3,0 C
08:29
4,5 C
11:39
1032,5 hPa1029,1 hPa
22:30
1036,4 hPa
00:04
6,1 km/h
W
22,0 km/h
13:49  
---
30 Minuten
93 %92 %
00:04
95 %
09:49
3,8 klux13,0 klux
11:09
--- 
25.
Dezember
2,2 C-1,9 C
22:51
5,4 C
14:05
1033,0 hPa1029,1 hPa
01:10
1037,1 hPa
22:51
4,2 km/h
NO
22,8 km/h
15:20  
---
15 Minuten
87 %77 %
16:00
94 %
00:00
7,4 klux40,5 klux
13:55
1:10 Std 
26.
Dezember
-2,3 C-5,0 C
23:12
2,5 C
14:31
1038,7 hPa1037,0 hPa
00:46
1040,5 hPa
09:11
5,8 km/h
NO
25,1 km/h
02:21  
---
77 %66 %
14:45
84 %
23:37
21,3 klux38,3 klux
12:21
7:00 Std 
27.
Dezember
-3,9 C-6,1 C
03:52
-2,1 C
14:52
1037,4 hPa1035,3 hPa
23:58
1038,7 hPa
03:07
3,9 km/h
O
21,0 km/h
10:32  
---
82 %76 %
14:22
88 %
04:42
6,1 klux15,2 klux
14:32
--- 
28.
Dezember
-3,2 C-6,9 C
23:59
1,2 C
14:53
1032,5 hPa1029,5 hPa
16:03
1035,3 hPa
00:03
3,2 km/h
O-NO
16,5 km/h
14:28  
---
77 %67 %
15:13
83 %
23:54
19,3 klux37,7 klux
12:13
6:40 Std 
29.
Dezember
-6,2 C-10,2 C
08:54
1,4 C
14:49
1033,1 hPa1031,4 hPa
14:49
1034,9 hPa
23:45
0,8 km/h
SO
8,8 km/h
13:24  
---
83 %71 %
14:54
89 %
11:34
19,5 klux36,8 klux
12:29
6:55 Std 
30.
Dezember
-6,6 C-10,6 C
07:10
0,6 C
15:20
1033,6 hPa1030,5 hPa
15:00
1035,2 hPa
07:10
1,4 km/h
SO
15,6 km/h
13:35  
---
82 %69 %
15:40
90 %
12:05
19,0 klux37,2 klux
12:25
6:55 Std 
31.
Dezember
-6,0 C-9,9 C
09:01
1,2 C
14:06
1028,6 hPa1025,7 hPa
16:56
1031,9 hPa
02:21
0,6 km/h
SO
8,7 km/h
01:16  
---
85 %77 %
14:16
89 %
11:11
17,4 klux51,4 klux
13:41
4:45 Std 



Dezember
2008

Temperatur

  

Luftdruck

  

Wind

  

Regen

  

Luftfeuchte

  

Helligkeit

Sonnen-
schein

Min

Max

Min

Max

Max

Max

Min

Max

Max

Max

0,4 C

-10,6 C

07:10 Uhr
30.12.2008

8,0 C

10:56 Uhr
21.12.2008

1019,8 hPa

988,5 hPa

02:47 Uhr
05.12.2008

1040,5 hPa

09:11 Uhr
26.12.2008

6,5 km/h

W

44,6 km/h

14:45 Uhr
20.12.2008

10,3 l/m

11:55 Stunden
20.12.2008

89 %

66 %

14:45 Uhr
26.12.2008

97 %

10:01 Uhr
21.12.2008

8,5 klux

51,40 klux

13:41 Uhr
31.12.2008

7:00 Std

am
26.12.2008

Gesamt

Gesamt

30,9 l/m

17 Tage
62:06 h

50:45 Std


Wetter-Diagramme Dezember 2008     Heinzenberg / Taunus   
TemperaturLuftfeuchte
SolarstrahlungLuftdruck
HelligkeitSonnenschein
RegenmengeRegendauer
Wind-GeschwindigkeitWind-Richtung